Regional Weather Roundup
Issued by NWS Charleston, SC

Current Version | Previous Version | Graphics & Text | Print | Product List | Glossary On
Versions: 1 2 3 4 5 6 7 8 9 10 11 12 13 14 15 16 17 18 19 20 21 22 23 24 25 26 27 28 29 30 31 32 33 34 35 36 37 38 39 40 41 42 43 44 45 46 47 48 49 50
000
ASUS42 KCHS 210525
RWRCHS

REGIONAL WEATHER ROUNDUP
NATIONAL WEATHER SERVICE CHARLESTON SC
100 AM EDT SUN SEP 21 2014

NOTE: "FAIR" INDICATES FEW OR NO CLOUDS BELOW 12,000 FEET WITH NO
SIGNIFICANT WEATHER AND/OR OBSTRUCTIONS TO VISIBILITY.

NOT ALL STATIONS ARE QUALITY CONTROLLED BY THE NATIONAL
WEATHER SERVICE. USE DATA WITH CAUTION...ESPECIALLY
DEWPOINT OBSERVATIONS.

SCZ027-030-031-034>040-042>050-210600-
...SOUTH CAROLINA...

CITY           SKY/WX    TMP DP  RH WIND       PRES   REMARKS
N CHARLESTON   CLOUDY    72  64  76 N9        29.92S
WATERFRONT PRK   N/A     73 N/A N/A N10         N/A
FORT JOHNSON   NOT AVBL
MOUNT PLEASANT FAIR      72  64  78 N6        29.90F
JOHNS ISLAND   PTCLDY    72  72 100 N5        29.91F
PINOPOLIS        N/A     75  66  73 N16       29.86F
MONCKS CORNER    N/A     73  68  83 N7        29.92F
SUMMERVILLE    FAIR      68  64  88 NW6       29.94F
BEAUFORT MCAS  MOCLDY    71  63  75 SW10      29.93F
BEAUFORT ARPT  FAIR      70  64  83 NW9       29.93S
HILTON HEAD IS MOCLDY    72  64  78 NW6       29.95S
GEORGETOWN     NOT AVBL
WALTERBORO     MOCLDY    68  68 100 N5        29.95F
ORANGEBURG     MOCLDY    68  61  78 N3        29.97F
BARNWELL       FAIR      64  61  88 NW3       29.99R
AIKEN          FAIR      64  64 100 NW3       30.04S
MANNING        FAIR      70  64  83 N5        29.94F
KINGSTREE      NOT AVBL
COLUMBIA       MOCLDY    70  59  68 N3        29.98F
SUMTER         CLOUDY    68  61  77 NW6       29.96S
FLORENCE       CLOUDY    71  62  73 N9        29.95S
MYRTLE BEACH   CLOUDY    70  64  83 N12       29.88F
N MYRTLE BEACH LGT RAIN  70  68  93 N7        29.87F

$$

GAZ063-065-086>088-099>101-113>116-118-119-134-136>141-150-210600-
...GEORGIA...

CITY           SKY/WX    TMP DP  RH WIND       PRES   REMARKS
SAVANNAH ARPT  MOCLDY    70  62  76 NW6       29.96S
HUNTER AAF     MOCLDY    69  64  82 NW8       29.94S
FORT STEWART   PTCLDY    67  62  85 N6        29.95F
STATESBORO     NOT AVBL
SYLVANIA       PTCLDY    70  67  91 CALM      29.98F
CLAXTON        FAIR      64  64 100 CALM      29.97F
THOMSON        CLEAR     63  63 100 CALM      30.06S
AUGUSTA-BUSH   PTCLDY    63  61  93 CALM      29.99F
AUGUSTA-DANIEL PTCLDY    70  62  76 NW7       30.01S
SWAINSBORO     FAIR      63  63 100 NW3       30.00F
VIDALIA        PTCLDY    68  63  83 CALM      29.99F
ALMA           CLEAR     64  62  93 CALM      29.98F
WAYCROSS       NOT AVBL
JESUP          FAIR      70  66  88 N3        29.97S
BRUNSWICK      CLEAR     68  64  88 CALM      29.95F
SAINT SIMONS   CLEAR     69  65  86 NW7       29.95F

$$

SCZ027-028-034-036>038-045-046-048>050-GAZ119-141-210600-
...LAKE AND SUPPLEMENTAL COASTAL OBSERVATIONS...

STATION/POSITION TIME  TEMP    WIND        PRES    WAVE   SWELL
                       AIR SEA DIR/SP/G            HT/PER HT/PER/DIR
                 (UTC) (F)     (DEG/KT/KT) (MB)    (FT/S) (FT/S/D)
UPR LAKE MARION  NOT AVBL
WINYAH BAY       0500   69     350/  7     1012.0S
LAKE MURRAY      0400   71     350/  1/  5 1015.2S
ACE BASIN NERRS  0500   69     340/  3     1013.0S
FORT PULASKI     0500   70     320/  7/  8 1014.0F
SAPELO ISLAND    0500   69     340/  6     1014.0S

$$

ANZ835-935-AMZ111-154-330-350-352-354-374-450-454-472-210600-
...C-MAN AND BUOY OBSERVATIONS...

STATION/POSITION TIME  TEMP    WIND        PRES    WAVE   SWELL
                       AIR SEA DIR/SP/G            HT/PER HT/PER/DIR
                 (UTC) (F)     (DEG/KT/KT) (MB)    (FT/S) (FT/S/D)
FOLLY BEACH CMAN 0500   72     330/  8/ 13 1013.1F
BUOY 41004       0500   77 81  360/ 19/ 23 1009.9F   8/ 8   3/15
BUOY 41008       0500   76 83  360/ 16/ 19 1013.2F   5/ 6   3/ 90/ 8
5E ST. MARYS GA  0500      83                N/A     5/ 6
FRYING PAN BUOY  NOT AVBL
BUOY 41025       0500   78     110/ 19/ 25 1010.2F   8/ 7
CAPE LOOKOUT NC  0500   71      10/ 13/ 16 1009.6F
BUOY 41002       0449   79 82  180/ 19/ 29 1010.9F   8/ 7
BUOY 41010       0500   81 84  240/ 17/ 21 1011.3R   5/ 9   3/ 10/ 9
BUOY 41012       NOT AVBL
ST AUGUSTINE FL  0500   71     320/  8/ 10 1014.2F
CAPERS NEARSHORE 0400   72      10/ 19/ 21   N/A
FRIPP NEARSHORE  NOT AVBL


$$



USA.gov is the U.S. government's official web portal to all federal, state and local government web resources and services.